Location: Tucson
(32.2217°N, 110.9265°W)
Time: 11:14:06
(UTC-07:00)

Envisat - Pass Details

Date: 07 October 2021
Orbit: 764 x 766 km, 98.2° (Epoch: 22 October)

Event Time Altitude Azimuth Distance (km) Brightness Sun altitude
Rises 04:35:26 0° 28° (NNE) 3,230 6.7 -23.3°
Reaches altitude 10° 04:38:08 10° 41° (NE) 2,300 6.1 -22.7°
Maximum altitude 04:42:16 25° 96° (E) 1,504 5.3 -21.9°
Drops below altitude 10° 04:46:22 10° 151° (SSE) 2,289 5.7 -21.0°
Sets 04:49:02 0° 164° (SSE) 3,211 6.3 -20.4°
